Location: ???????
(37.9480°N, 22.7910°E)
Time: 15:48:32
(UTC+00:00)

Daily predictions for brighter satellites

Satellite Brightness Start Highest point End
(mag) Time Altitude Azimuth Time Altitude Azimuth Time Altitude Azimuth
ATLAS 2AS CENTAUR R/B 2.9 18:17:30 10° NNW 18:24:12 58° NE 18:30:41 10° SE
Cosmos 2333 Rocket 2.6 18:18:58 10° NNW 18:24:35 50° ENE 18:30:09 10° SE
SL-14 R/B 3.6 18:23:19 10° SSE 18:26:54 42° E 18:30:29 10° NNE
Cosmos 1300 3.6 18:25:49 10° NNE 18:28:55 27° ENE 18:31:59 10° SE
Cosmos 1833 4.2 18:23:32 10° SSW 18:29:10 87° ESE 18:34:49 10° NNE
CZ-4C R/B 4.3 18:28:25 10° NE 18:31:59 29° E 18:35:27 10° SSE
Cosmos 1869 Rocket 3.6 18:28:14 10° N 18:32:42 84° E 18:37:09 10° S
COSMOS 2455 3.8 18:30:57 10° SSE 18:35:47 26° ESE 18:40:38 10° NE
Cosmos 2315 Rocket 4.5 18:30:05 10° N 18:36:10 45° ENE 18:42:12 10° SSE
Cosmos 1470 4.5 18:34:12 10° NNW 18:37:31 31° W 18:40:50 10° SSW
SJ 16-02 1.2 18:34:43 10° S 18:38:59 76° ESE 18:43:19 10° NNE
Cosmos 2322 Rocket 2.3 18:33:51 10° NNW 18:39:34 87° WSW 18:45:16 10° SSE
SL-08 ROCKET BODY 4.4 18:34:19 10° S 18:40:25 82° E 18:46:26 10° N
Cosmos 2297 Rocket 4.0 18:40:20 10° ESE 18:42:05 11° E 18:43:50 10° ENE
Meteor 1-23 Rocket 4.3 18:39:16 10° S 18:44:57 89° W 18:50:45 10° N
Okean 1-7 4.2 18:45:50 11° SE 18:49:00 24° E 18:52:27 10° NE
Meteor 1-12 Rocket 4.4 18:46:49 10° N 18:52:51 78° E 18:58:47 10° SSE
Cosmos 2219 Rocket 2.7 18:47:51 10° N 18:53:21 48° ENE 18:58:01 14° SE
Cosmos 1455 4.2 18:52:19 10° NE 18:53:44 12° ENE 18:55:01 10° E
Okean 3 3.7 18:50:20 10° SSE 18:54:18 46° E 18:58:18 10° NNE
Okean-O 2.6 18:52:53 10° SSE 18:57:15 71° ENE 19:01:39 10° N
Atlas Centaur 2 4.5 18:53:10 10° WSW 18:57:48 18° SSW 19:02:49 10° SSE
Cosmos 2266 Rocket 4.5 18:52:14 10° SSW 18:58:33 67° W 19:04:56 10° N
Cosmos 1758 3.2 18:56:28 10° N 19:00:26 83° E 19:04:12 11° S
Cosmos 1862 Rocket 3.5 18:56:16 10° S 19:00:37 72° E 19:05:04 10° NNE
PSLV R/B 4.3 18:57:43 10° S 19:01:06 49° W 19:04:30 10° NNW
CZ-4C R/B 2.0 18:58:02 10° S 19:01:54 39° ESE 19:06:31 10° NE
Cosmos 1356 Rocket 3.9 18:58:06 10° SSW 19:02:15 64° W 19:06:26 10° N
BREEZE-M DEB (TANK) 3.3 19:00:07 10° SSW 19:03:15 32° SE 19:05:26 10° ENE
Okean O Rocket 2.5 18:59:39 10° S 19:03:52 48° W 19:08:05 10° NNW
MOS 1 4.3 19:00:33 11° SSE 19:06:04 79° ENE 19:11:43 10° N
S3M 4.3 19:00:34 10° NNW 19:06:50 70° W 19:13:00 10° S
Cosmos 839 Rocket 4.2 19:00:35 10° NNW 19:07:06 61° ENE 19:11:48 17° SE
Ariane Rocket 4.2 19:04:16 15° ESE 19:07:29 27° ENE 19:11:44 10° N
MetOp-B 4.2 19:03:28 13° SSE 19:08:08 65° ENE 19:13:27 10° N
CZ-4 R/B 4.2 19:07:39 10° WSW 19:09:43 14° W 19:11:47 10° WNW
Cosmos 2228 Rocket 3.6 19:05:28 10° SSW 19:09:58 64° W 19:14:31 10° N
Meteor 2-10 Rocket 3.8 19:04:41 10° NNW 19:10:01 70° W 19:15:06 10° S
Delta 2 Rocket 3.1 19:07:31 10° WSW 19:10:38 42° SSE 19:12:20 22° ESE
OPS 8737 4.1 19:07:54 10° NNW 19:10:54 83° ENE 19:12:53 23° SE
Terra 2.6 19:11:08 19° SE 19:14:00 37° ENE 19:18:20 10° N
Cosmos 807 4.2 19:11:29 10° SSW 19:14:29 72° W 19:17:23 10° N
Meteor 1-4 Rocket 2.1 19:13:21 10° SSW 19:16:18 75° W 19:19:18 10° N
DNEPR-1 R/B 4.1 19:10:05 10° NNW 19:16:19 88° ENE 19:19:53 20° SSE
Cosmos 1242 Rocket 2.8 19:16:10 27° ESE 19:16:20 27° E 19:18:41 10° NNE
MOS 1 Rocket 4.3 19:15:36 19° SE 19:18:52 38° ENE 19:23:37 10° N
Cosmos 1707 Rocket 4.3 19:15:24 10° SSW 19:19:44 55° W 19:24:05 10° N
SL-24 R/B - RUBIN 2 4.4 19:16:50 10° NNW 19:23:20 82° WSW 19:27:29 21° SSE
USA 234 3.6 19:17:21 10° ENE 19:23:25 40° SE 19:29:27 10° SSW
Cosmos 2360 Rocket 3.0 19:18:21 10° NW 19:23:45 47° WSW 19:28:52 11° S
ARGOS Delta rocket 3.7 19:20:47 15° S 19:24:25 74° W 19:28:50 10° NNW
COSMOS 2428 3.4 19:22:17 10° N 19:27:41 42° ENE 19:30:54 22° ESE
SPOT 5 2.7 19:25:47 18° S 19:29:00 75° WSW 19:33:31 10° NNW
IRS-1C Rocket 4.0 19:27:39 19° SSE 19:31:28 88° ENE 19:36:45 10° NNW
Cosmos 1244 Rocket 4.5 19:25:46 12° S 19:31:33 71° E 19:37:51 10° NNE
Cosmos 1953 2.6 19:29:27 10° N 19:33:06 44° E 19:34:18 32° SE
Cosmos 1733 Rocket 3.9 19:33:57 10° NNW 19:38:14 49° W 19:41:46 14° SSW
ERS-1 Rocket 2.9 19:41:28 25° SSE 19:44:28 88° WSW 19:49:30 10° NNW
SL-08 R/B 4.4 19:40:35 19° S 19:45:02 71° E 19:51:07 10° NNE
Meteor 2-20 Rocket 4.3 19:40:55 10° N 19:47:00 83° E 19:50:31 26° S
Cosmos 1315 Rocket 3.7 19:45:47 11° SSW 19:49:31 48° WNW 19:53:24 10° N
Resurs 01 Rocket 4.5 19:49:09 10° WSW 19:50:11 11° W 19:51:13 10° WNW
Cosmos 2084 Rocket 3.6 19:50:32 10° SW 19:54:53 72° WNW 19:59:06 10° NNE
SL-4 R/B 2.2 19:52:29 10° NW 19:56:21 61° NE 19:57:36 39° E
Cosmos 2242 Rocket 4.4 19:58:29 32° ESE 19:58:54 33° E 20:03:00 10° NNE
Cosmos 1408 3.6 20:00:54 25° NE 20:00:54 25° NE 20:02:36 10° NNE
Cosmos 1908 Rocket 3.4 19:56:57 10° N 20:01:17 87° E 20:02:37 44° S
Cosmos 1782 Rocket 3.9 20:01:13 10° N 20:05:23 46° E 20:06:01 42° ESE
Cosmos 1570 Rocket 4.0 20:00:14 10° NNW 20:05:36 82° WSW 20:07:47 37° S
Cosmos 2237 Rocket 3.2 20:01:18 10° N 20:06:24 34° ENE 20:08:28 26° E
Cosmos 2227 Rocket 2.9 20:06:01 33° ESE 20:06:32 34° ESE 20:11:34 10° NE
Cosmos 2333 Rocket 4.2 20:04:12 10° NW 20:08:24 21° W 20:12:36 10° SSW
Cosmos 1300 Rocket 4.0 20:05:02 10° N 20:09:08 41° E 20:09:35 40° E
Cosmos 836 Rocket 4.5 20:09:16 10° NNW 20:14:29 73° ENE 20:16:01 46° SE
ATLAS 2AS CENTAUR R/B 4.2 20:09:22 10° WNW 20:14:32 24° WSW 20:18:41 13° SSW
SL-23 DEB 4.1 20:12:40 10° WSW 20:16:05 72° NW 20:21:21 10° NE
Meteor 2-5 Rocket 4.3 20:16:54 37° ESE 20:18:00 40° E 20:23:22 10° NNE
Landsat 4 3.8 20:19:39 55° WSW 20:19:47 56° W 20:23:09 10° NNW
NOSS 0 Rocket 3.9 20:14:24 10° NNW 20:20:40 77° ENE 20:22:55 42° SE
Spot 2 Rocket 4.0 20:18:30 31° SSW 20:20:40 53° W 20:25:40 10° NNW
Cosmos 1980 4.2 20:15:43 10° N 20:21:12 48° ENE 20:22:53 37° ESE
COSMOS 2455 3.8 20:15:37 10° SW 20:21:22 47° WNW 20:27:10 10° NNE
Cosmos 1777 Rocket 3.9 20:20:52 47° SSE 20:22:17 67° ESE 20:27:32 10° NNE
Cosmos 2322 4.1 20:16:56 10° NNW 20:22:26 54° WSW 20:24:36 34° SSW
Cosmos 2297 Rocket 2.2 20:21:39 23° SSW 20:25:16 82° WNW 20:30:57 10° NNE
SeaSat 1 2.4 20:24:21 52° SE 20:25:31 79° ENE 20:30:27 10° NNW
ARIANE 5 R/B 4.1 20:26:17 23° ENE 20:26:32 23° ENE 20:29:58 10° NNE
Cosmos 1455 3.4 20:25:05 10° NNW 20:28:13 31° W 20:28:43 29° WSW
GP-B 2.9 20:24:46 10° N 20:29:10 71° E 20:29:29 67° SE
SPOT 3 Rocket 4.0 20:27:20 34° SSW 20:29:15 53° W 20:34:19 10° NNW
Landsat 5 3.7 20:26:37 10° N 20:30:48 67° WNW 20:31:54 46° SW
MetOp-A 4.0 20:31:44 54° SSE 20:32:57 82° ENE 20:38:09 10° N
Cosmos 1503 Rocket 4.0 20:31:33 35° SSW 20:33:51 79° WNW 20:39:09 10° NNE
Cosmos 1703 3.7 20:36:08 48° NE 20:36:08 48° NE 20:38:59 10° NNE
Cosmos 2219 Rocket 4.0 20:32:39 10° NW 20:36:52 22° W 20:39:44 15° SW
CENTAUR R/B 2.1 20:35:25 47° S 20:37:01 71° ESE 20:43:30 10° NE
Cosmos 158 Rocket 4.3 20:33:34 10° NNW 20:38:38 56° WSW 20:39:46 45° SSW
BREEZE-M R/B 4.2 20:42:21 30° E 20:42:21 30° E 20:46:15 10° ENE
Cosmos 2219 4.0 20:42:06 34° E 20:42:06 34° E 20:46:38 10° NE
Cosmos 1745 Rocket 4.2 20:38:43 30° SSW 20:41:59 67° W 20:48:20 10° N
Cosmos 2263 Rocket 3.5 20:45:28 24° E 20:45:28 24° E 20:48:53 10° NE
Ariane Rocket 4.3 20:44:25 25° SW 20:46:15 32° W 20:50:48 10° NW
CZ-4C R/B 4.2 20:46:51 10° W 20:50:27 23° NW 20:54:43 10° NNE
Nadezhda 1 Rocket 4.2 20:44:51 10° NNW 20:50:59 63° W 20:53:01 41° SSW
Meteor 1-24 Rocket 3.6 20:50:34 60° S 20:51:38 80° E 20:57:11 10° NNE
Terra 3.8 20:49:49 16° SW 20:51:40 20° W 20:55:08 10° NW
Okean 2 Rocket 4.2 20:57:24 10° NNE 21:01:01 33° ENE 21:01:01 33° ENE
USA 234 3.9 21:00:09 10° NE 21:06:30 55° NW 21:12:49 10° WSW
Cosmos 783 Rocket 4.3 21:02:21 10° NNW 21:07:41 84° ENE 21:08:01 78° SE
ALOS 2 4.3 21:09:12 22° ENE 21:09:12 22° ENE 21:12:22 10° NNE
USA 281 3.7 21:09:22 38° ESE 21:11:18 50° ENE 21:17:36 10° NNW
COSMOS 2428 4.2 21:07:03 10° NW 21:11:37 25° WSW 21:12:54 23° WSW
Cosmos 2074 Rocket 4.3 21:14:11 48° ESE 21:14:39 49° E 21:20:36 10° NNE
Cosmos 405 Rocket 3.8 21:15:08 10° N 21:17:44 42° NNW 21:17:44 42° NNW
Aureole 1 Rocket 4.4 21:23:49 31° NE 21:23:49 31° NE 21:26:38 10° NNE
Cosmos 2181 Rocket 3.8 21:17:35 10° N 21:23:44 74° E 21:24:25 67° SE
Cosmos 990 Rocket 3.8 21:24:51 85° NW 21:24:51 85° NW 21:29:56 10° NNE
Cosmos 2221 Rocket 4.0 21:30:14 58° N 21:30:14 58° N 21:33:49 10° N
CZ-2C R/B 4.5 21:26:33 10° N 21:30:46 44° WNW 21:30:58 43° W
CZ-3 Stage 3 4.3 21:01:39 10° W 21:35:35 45° SW 21:38:20 40° S
Okean 1 Rocket 3.9 21:33:38 10° N 21:36:59 44° NE 21:36:59 44° NE
Cosmos 2098 Rocket 3.9 21:32:55 10° NNW 21:39:05 60° W 21:39:36 58° WSW
Sich 1 Rocket 4.1 21:36:19 10° N 21:39:46 55° NNW 21:39:46 55° NNW
Cosmos 1025 Rocket 4.1 21:47:07 38° NE 21:47:07 38° NE 21:49:58 10° NNE
SL-16 R/B 2.2 21:44:10 10° NNW 21:49:52 72° ENE 21:50:00 71° ENE
NOSS 3-2 (A) 3.8 21:48:36 40° W 21:49:58 50° NW 21:55:41 10° NNE
Cosmos 2237 Rocket 3.3 21:45:26 10° NW 21:50:16 31° WSW 21:50:16 31° WSW
Cosmos 2227 Rocket 3.7 21:47:45 21° WSW 21:50:31 32° WNW 21:55:33 10° N
Cosmos 2082 3.6 21:54:18 83° WNW 21:54:18 83° WNW 21:59:57 10° NNE
H-2A R/B 3.5 21:56:06 44° NW 21:56:06 44° NW 21:59:06 10° NNW
Nadezhda 3 Rocket 4.0 21:52:10 10° N 21:58:19 63° E 21:58:44 62° ESE
NOSS 3-2 (C) 3.1 22:02:06 74° NE 22:02:06 74° NE 22:07:27 10° NNE
ARIANE 5 R/B 4.3 22:03:45 25° WNW 22:03:45 25° WNW 22:06:30 10° NW
Cosmos 1825 4.5 22:06:41 19° NW 22:06:41 19° NW 22:08:04 10° NNW
Cosmos 1455 Rocket 4.2 22:01:54 10° N 22:05:09 38° NE 22:05:09 38° NE
Cosmos 2184 Rocket 4.2 22:08:10 58° WSW 22:08:59 63° W 22:15:20 10° N
Spot 4 4.5 22:10:06 49° WNW 22:10:06 49° WNW 22:14:01 10° NNW
Cosmos 2327 Rocket 4.3 22:18:41 76° ESE 22:18:49 76° E 22:24:57 10° N
SL-8 Rocket 4.3 22:26:19 51° E 22:26:33 51° E 22:32:32 10° NNE
Cosmos 2154 Rocket 4.3 22:27:17 51° WSW 22:27:58 54° W 22:34:09 10° N
Cosmos 2263 Rocket 3.1 22:27:07 37° W 22:28:02 40° WNW 22:33:16 10° N
Cosmos 1937 Rocket 3.7 22:31:10 64° NW 22:31:10 64° NW 22:36:03 10° NNE
Cosmos 1818 3.7 22:28:02 10° NNW 22:32:53 69° NW 22:32:53 69° NW
Cosmos 2227 4.2 22:38:22 81° ENE 22:38:22 81° ENE 22:43:54 10° NNE
Cosmos 962 Rocket 4.3 22:38:26 81° S 22:38:47 88° E 22:45:08 10° N
Cosmos 1844 4.5 22:41:19 41° E 22:41:19 41° E 22:46:12 10° NE
Cosmos 1844 Rocket 3.1 22:44:32 49° E 22:44:32 49° E 22:49:18 10° NNE
ALOS 2 4.4 22:46:36 24° WNW 22:46:36 24° WNW 22:48:59 10° NW
Cosmos 923 Rocket 4.3 22:45:25 10° NNW 22:49:49 59° NW 22:49:49 59° NW
USA 281 4.3 22:56:13 29° W 22:56:13 29° W 23:01:31 10° NW
H-2A R/B 3.2 22:54:11 10° N 22:57:02 37° NNW 22:57:02 37° NNW
Meteor 1-11 4.4 23:01:17 65° W 23:01:23 65° W 23:07:09 10° N
Cosmos 864 Rocket 4.3 23:03:50 78° S 23:04:20 89° ESE 23:10:41 10° N
Cosmos 921 Rocket 4.4 23:03:17 10° N 23:06:40 31° ENE 23:06:40 31° ENE
USA 238 DEB 3.7 23:08:11 52° W 23:09:19 61° NW 23:15:53 10° NNE
USA 238 3.7 23:08:14 53° W 23:09:21 62° NW 23:15:55 10° NNE
IDEFIX/ARIANE 42P 4.4 23:05:57 10° NE 23:09:38 19° E 23:10:02 19° E
Cosmos 1544 Rocket 4.3 23:15:01 10° N 23:18:17 48° NNW 23:18:17 48° NNW
Cosmos 1867 4.4 23:19:03 38° WNW 23:19:52 40° NW 23:25:02 10° NNE
Cosmos 1680 Rocket 4.4 23:24:28 10° NNW 23:28:15 36° WNW 23:28:15 36° WNW
Cosmos 2341 Rocket 4.5 23:28:46 44° W 23:29:25 45° WNW 23:35:22 10° N
Cosmos 1821 Rocket 3.8 23:32:19 71° S 23:33:03 86° E 23:39:16 10° N
SL-16 R/B 4.4 23:30:30 10° WNW 23:31:50 13° W 23:31:50 13° W
Cosmos 1943 3.8 23:33:58 10° NW 23:38:26 41° W 23:38:26 41° W
Cosmos 1603 3.6 23:33:53 10° NNW 23:39:37 74° WSW 23:39:41 74° WSW
Helios 1A Rocket 3.7 23:42:09 45° NNE 23:42:09 45° NNE 23:44:59 10° N
Lacrosse 5 3.6 23:43:42 20° ESE 23:43:42 20° ESE 23:46:47 10° ENE
Cosmos 494 Rocket 3.8 23:39:14 10° NNW 23:44:30 84° WSW 23:44:30 84° WSW
Meteor 2-13 Rocket 4.3 23:41:19 10° N 23:47:28 89° E 23:48:34 63° S
Gbstr 26 Del rocket 4.2 23:47:44 46° SE 23:47:44 46° SE 23:53:57 10° ENE
Timation 2 Rocket 4.0 23:49:28 61° SSW 23:50:42 85° ESE 23:57:05 10° NNE
COBE Rocket 3.9 23:46:51 10° NNE 23:52:02 77° E 23:52:20 74° SE
Cosmos 1606 Rocket 3.8 23:49:54 10° N 23:54:10 63° ENE 23:54:10 63° ENE
